Location: Ash Swamp
(41.5170°N, 74.6157°W)
Time: 02:05:59
(UTC+00:00)

Iridium 4 Rocket - Pass Details

Date: 14 July 2020
Orbit: 583 x 906 km, 86.9° (Epoch: 14 August)

Event Time Altitude Azimuth Distance (km) Brightness Sun altitude
Exits shadow 05:23:35 54° 110° (ESE) 1,027 3.9 -26.7°
Maximum altitude 05:24:06 57° 88° (E) 999 4.0 -26.7°
Drops below altitude 10° 05:29:23 10° 11° (N) 2,391 7.1 -26.6°
Sets 05:31:42 0° 7° (N) 3,277 8.1 -26.6°
